GW2929 Weather Reports


Display with metric or nautical units.
time (UTC)temp
F
wind
direction
speed
MPH
gust
MPH
rain 1hr
in
rain 24hr
in
rain mn
in
humidity
%
barometer
mb
20260504034150 71 186 1.0 1.0 0.00 0.00 0.00 73 1013.8
20260504033648 71 201 0.0 1.0 0.00 0.00 0.00 72 1013.7
20260504033145 71 192 0.0 0.0 0.00 0.00 0.00 72 1013.6
20260504032641 71 192 1.0 1.0 0.00 0.00 0.00 71 1013.8
20260504032139 71 184 0.0 0.0 0.00 0.00 0.00 71 1013.7
20260504031636 71 202 1.0 2.0 0.00 0.00 0.00 71 1013.9
20260504031132 71 211 0.0 0.0 0.00 0.00 0.00 71 1013.7
20260504030629 71 200 0.0 1.0 0.00 0.00 0.00 70 1013.6
20260504030125 71 204 0.0 0.0 0.00 0.00 0.00 70 1013.6
20260504025622 71 188 0.0 1.0 0.00 0.00 0.00 69 1013.6
20260504025119 71 206 0.0 0.0 0.00 0.00 0.00 69 1013.6
20260504024616 71 209 0.0 0.0 0.00 0.00 0.00 68 1013.8
20260504024113 71 197 0.0 0.0 0.00 0.00 0.00 68 1013.8
20260504023609 71 199 0.0 0.0 0.00 0.00 0.00 68 1013.6
20260504023105 71 202 0.0 0.0 0.00 0.00 0.00 68 1013.5
20260504022602 71 186 1.0 2.0 0.00 0.00 0.00 68 1013.7
20260504022058 71 187 0.0 0.0 0.00 0.00 0.00 67 1013.4
20260504021556 71 194 0.0 0.0 0.00 0.00 0.00 67 1013.4
20260504021052 71 198 1.0 1.0 0.00 0.00 0.00 67 1013.4
20260504020549 72 196 0.0 0.0 0.00 0.00 0.00 67 1013.1
20260504020045 72 185 0.0 0.0 0.00 0.00 0.00 67 1013.3
20260504015542 72 199 1.0 1.0 0.00 0.00 0.00 67 1013.2
20260504015038 72 193 1.0 1.0 0.00 0.00 0.00 67 1013.0
20260504014535 72 191 1.0 2.0 0.00 0.00 0.00 67 1013.1
20260504014032 72 196 1.0 1.0 0.00 0.00 0.00 66 1013.0
20260504013529 72 198 1.0 1.0 0.00 0.00 0.00 66 1013.1
20260504013026 72 139 3.0 4.0 0.00 0.00 0.00 66 1013.2
20260504012524 72 193 2.0 2.0 0.00 0.00 0.00 66 1013.1
20260504012022 72 188 0.0 0.0 0.00 0.00 0.00 66 1013.1
20260504011518 72 155 4.0 4.0 0.00 0.00 0.00 66 1012.9
20260504011014 72 200 0.0 0.0 0.00 0.00 0.00 66 1013.1
20260504010509 73 168 2.0 4.0 0.00 0.00 0.00 66 1012.8
20260504010006 73 186 1.0 1.0 0.00 0.00 0.00 66 1013.1
20260504005503 73 193 0.0 1.0 0.00 0.00 0.00 66 1012.9
20260504005000 73 160 2.0 4.0 0.00 0.00 0.00 66 1012.9
20260504004458 74 168 2.0 2.0 0.00 0.00 0.00 65 1013.0
20260504003954 74 228 2.0 3.0 0.00 0.00 0.00 64 1013.0
20260504003450 74 144 5.0 8.0 0.00 0.00 0.00 63 1013.1
20260504002948 74 214 0.0 1.0 0.00 0.00 0.00 63 1013.4
20260504002445 74 163 1.0 2.0 0.00 0.00 0.00 63 1013.2
20260504001942 75 113 1.0 1.0 0.00 0.00 0.00 62 1013.4
20260504001439 75 181 2.0 3.0 0.00 0.00 0.00 62 1013.1
20260504000936 75 175 1.0 2.0 0.00 0.00 0.00 62 1013.3
20260504000433 75 204 1.0 2.0 0.00 0.00 0.00 63 1013.1
20260503235930 75 262 2.0 2.0 0.00 0.00 0.00 62 1013.3
20260503235428 75 184 2.0 3.0 0.00 0.00 0.00 62 1013.1
20260503234925 75 128 1.0 2.0 0.00 0.00 0.00 62 1013.0
20260503234422 75 191 1.0 3.0 0.00 0.00 0.00 61 1013.1
20260503233920 76 253 1.0 2.0 0.00 0.00 0.00 61 1013.0
20260503233417 76 221 1.0 2.0 0.00 0.00 0.00 61 1013.1
20260503232913 76 157 2.0 2.0 0.00 0.00 0.00 61 1013.2
20260503232410 76 127 1.0 2.0 0.00 0.00 0.00 60 1013.3
20260503231908 77 192 1.0 1.0 0.00 0.00 0.00 60 1013.4
20260503231405 77 191 1.0 1.0 0.00 0.00 0.00 61 1013.4
20260503230902 78 146 2.0 3.0 0.00 0.00 0.00 59 1013.4
20260503230358 78 286 1.0 2.0 0.00 0.00 0.00 59 1013.6
20260503225856 77 220 1.0 1.0 0.00 0.00 0.00 59 1013.4
20260503225351 77 167 2.0 2.0 0.00 0.00 0.00 60 1013.5
20260503224848 77 215 1.0 2.0 0.00 0.00 0.00 59 1013.6
20260503224345 78 232 1.0 2.0 0.00 0.00 0.00 58 1013.5
20260503223843 78 91 2.0 6.0 0.00 0.00 0.00 58 1013.7
20260503223340 78 191 1.0 2.0 0.00 0.00 0.00 59 1013.7
20260503222836 77 184 1.0 2.0 0.00 0.00 0.00 59 1013.6
20260503222335 77 106 2.0 3.0 0.00 0.00 0.00 59 1013.9
20260503221832 78 156 2.0 3.0 0.00 0.00 0.00 59 1013.8
20260503221331 78 225 2.0 2.0 0.00 0.00 0.00 57 1013.8
20260503220826 79 213 1.0 2.0 0.00 0.00 0.00 56 1013.7
20260503220323 79 190 1.0 1.0 0.00 0.00 0.00 56 1014.0
20260503215820 79 190 1.0 2.0 0.00 0.00 0.00 56 1014.1
20260503215318 79 206 2.0 3.0 0.00 0.00 0.00 56 1014.1
20260503214815 79 274 3.0 4.0 0.00 0.00 0.00 54 1014.1
20260503214312 79 179 2.0 3.0 0.00 0.00 0.00 55 1014.2
20260503213810 80 90 3.0 4.0 0.00 0.00 0.00 54 1014.4
20260503213307 79 173 3.0 6.0 0.00 0.00 0.00 55 1014.5
20260503212804 80 153 3.0 4.0 0.00 0.00 0.00 53 1014.7
20260503212304 81 275 2.0 3.0 0.00 0.00 0.00 52 1014.6
20260503211759 80 191 2.0 2.0 0.00 0.00 0.00 53 1014.8
20260503211255 81 335 3.0 4.0 0.00 0.00 0.00 53 1015.0
20260503210755 82 172 1.0 3.0 0.00 0.00 0.00 51 1015.0
20260503210253 81 198 2.0 3.0 0.00 0.00 0.00 53 1014.9
20260503205748 81 193 2.0 4.0 0.00 0.00 0.00 51 1014.9
20260503205245 80 356 2.0 2.0 0.00 0.00 0.00 52 1015.0
20260503204741 79 44 2.0 2.0 0.00 0.00 0.00 53 1015.0
20260503204239 80 28 2.0 2.0 0.00 0.00 0.00 51 1015.0
20260503203736 80 4 2.0 3.0 0.00 0.00 0.00 52 1015.2
20260503203234 79 234 2.0 4.0 0.00 0.00 0.00 52 1015.6
20260503202731 80 192 2.0 2.0 0.00 0.00 0.00 53 1015.3
20260503202229 80 189 2.0 3.0 0.00 0.00 0.00 52 1015.7
20260503201726 80 1 6.0 11.0 0.00 0.00 0.00 52 1015.3
20260503201224 80 293 4.0 6.0 0.00 0.00 0.00 52 1015.4
20260503200720 81 209 3.0 4.0 0.00 0.00 0.00 51 1015.7
20260503200216 81 204 1.0 1.0 0.00 0.00 0.00 51 1015.9
20260503195713 81 263 2.0 2.0 0.00 0.00 0.00 50 1016.1
20260503195210 82 268 2.0 2.0 0.00 0.00 0.00 49 1016.0
20260503194707 80 320 2.0 2.0 0.00 0.00 0.00 50 1016.0
20260503194203 80 336 5.0 8.0 0.00 0.00 0.00 50 1016.2
20260503193700 81 319 2.0 3.0 0.00 0.00 0.00 50 1016.3
20260503193155 80 136 1.0 1.0 0.00 0.00 0.00 50 1016.4
20260503192651 81 253 0.0 1.0 0.00 0.00 0.00 49 1016.3
20260503192147 81 343 2.0 3.0 0.00 0.00 0.00 48 1016.5
20260503191644 81 247 4.0 7.0 0.00 0.00 0.00 50 1016.5
20260503191141 80 339 2.0 2.0 0.00 0.00 0.00 50 1016.5
20260503190638 80 21 3.0 3.0 0.00 0.00 0.00 50 1016.4
20260503190135 80 23 3.0 6.0 0.00 0.00 0.00 50 1016.7
20260503185631 80 323 3.0 3.0 0.00 0.00 0.00 50 1016.8
20260503185126 80 307 2.0 3.0 0.00 0.00 0.00 49 1016.9
20260503184622 80 357 2.0 2.0 0.00 0.00 0.00 50 1016.8
20260503184118 79 21 2.0 4.0 0.00 0.00 0.00 51 1017.2
20260503183615 80 8 3.0 4.0 0.00 0.00 0.00 50 1017.0
20260503183112 80 25 4.0 8.0 0.00 0.00 0.00 50 1017.1
20260503182611 79 302 2.0 3.0 0.00 0.00 0.00 50 1017.3
20260503182109 80 220 2.0 4.0 0.00 0.00 0.00 50 1017.2
20260503181605 81 167 0.0 0.0 0.00 0.00 0.00 51 1017.4
20260503181102 79 206 2.0 2.0 0.00 0.00 0.00 52 1017.5
20260503180559 80 50 3.0 3.0 0.00 0.00 0.00 51 1017.4
20260503180056 80 280 1.0 2.0 0.00 0.00 0.00 50 1017.6
20260503175553 79 352 4.0 6.0 0.00 0.00 0.00 55 1017.7
20260503175051 79 16 4.0 6.0 0.00 0.00 0.00 54 1017.8
20260503174547 79 225 0.0 1.0 0.00 0.00 0.00 58 1017.5
20260503174044 80 43 2.0 2.0 0.00 0.00 0.00 57 1017.8
20260503173539 80 87 1.0 2.0 0.00 0.00 0.00 57 1017.8
20260503173035 79 33 1.0 2.0 0.00 0.00 0.00 59 1018.0
20260503172533 79 69 1.0 3.0 0.00 0.00 0.00 58 1018.0
20260503172030 78 289 2.0 2.0 0.00 0.00 0.00 58 1018.0
20260503171526 80 330 4.0 6.0 0.00 0.00 0.00 54 1018.1
20260503171024 78 70 1.0 2.0 0.00 0.00 0.00 57 1017.9
20260503170520 80 288 1.0 2.0 0.00 0.00 0.00 54 1017.9
20260503150913 77 225 0.0 1.0 0.00 0.00 0.00 65 1018.2
20260503150409 76 179 0.0 0.0 0.00 0.00 0.00 65 1018.4
20260503131303 68 225 0.0 0.0 0.00 0.00 0.00 81 1017.4
20260503130800 68 240 1.0 2.0 0.00 0.00 0.00 82 1017.2
20260503130257 67 218 1.0 2.0 0.00 0.00 0.00 83 1017.1
20260503110651 57 234 0.0 0.0 0.00 0.00 0.00 92 1016.4
20260503110148 57 229 0.0 0.0 0.00 0.00 0.00 92 1016.5
20260503100115 58 220 0.0 0.0 0.00 0.00 0.00 93 1016.4
20260503081504 60 217 0.0 0.0 0.00 0.00 0.00 86 1016.5
20260503081001 60 217 0.0 0.0 0.00 0.00 0.00 86 1016.5
20260503080457 60 217 0.0 0.0 0.00 0.00 0.00 85 1016.6
20260503072934 62 217 0.0 0.0 0.00 0.00 0.00 81 1016.5
20260503072431 62 217 0.0 0.0 0.00 0.00 0.00 81 1016.6
20260503071928 62 216 0.0 0.0 0.00 0.00 0.00 80 1016.8
20260503071425 62 216 0.0 0.0 0.00 0.00 0.00 79 1016.8
20260503070921 62 216 0.0 0.0 0.00 0.00 0.00 79 1016.8
20260503070418 63 216 0.0 0.0 0.00 0.00 0.00 78 1016.5
20260503054832 67 213 0.0 0.0 0.00 0.00 0.00 65 1016.9
20260503054328 68 206 0.0 0.0 0.00 0.00 0.00 65 1016.6
20260503053826 68 204 0.0 0.0 0.00 0.00 0.00 66 1016.6
20260503053324 68 205 0.0 0.0 0.00 0.00 0.00 66 1016.9
20260503052820 68 156 0.0 1.0 0.00 0.00 0.00 65 1016.7
20260503052317 68 189 0.0 0.0 0.00 0.00 0.00 66 1016.7
20260503051813 66 212 0.0 0.0 0.00 0.00 0.00 68 1016.7
20260503051310 66 215 0.0 0.0 0.00 0.00 0.00 72 1016.7
20260503050806 67 215 0.0 0.0 0.00 0.00 0.00 72 1016.7
20260503050303 67 215 0.0 0.0 0.00 0.00 0.00 71 1016.3
20260503045801 68 216 0.0 0.0 0.00 0.00 0.00 70 1016.6
20260503045258 68 218 0.0 0.0 0.00 0.00 0.00 68 1016.6
20260503044754 68 203 0.0 0.0 0.00 0.00 0.00 68 1016.7
20260503044251 69 204 0.0 0.0 0.00 0.00 0.00 67 1016.7
20260503043748 69 214 0.0 0.0 0.00 0.00 0.00 68 1016.6
20260503043245 69 229 0.0 0.0 0.00 0.00 0.00 67 1016.4
20260503042741 69 222 0.0 0.0 0.00 0.00 0.00 67 1016.5
20260503042238 69 202 0.0 0.0 0.00 0.00 0.00 67 1016.4
20260503041734 69 210 0.0 0.0 0.00 0.00 0.00 66 1016.2
20260503041232 69 220 0.0 0.0 0.00 0.00 0.00 65 1016.2
20260503040729 69 200 0.0 1.0 0.00 0.00 0.00 65 1016.2
20260503040221 69 200 0.0 0.0 0.00 0.00 0.00 64 1016.4
20260503035718 70 210 0.0 0.0 0.00 0.00 0.00 63 1016.2
20260503035215 70 188 0.0 1.0 0.00 0.00 0.00 62 1016.1
20260503034712 70 230 0.0 1.0 0.00 0.00 0.00 62 1016.1